K8FAM-13 Weather Reports


Display with metric or nautical units.
time (UTC)temp
F
wind
direction
speed
MPH
gust
MPH
rain 1hr
in
rain 24hr
in
rain mn
in
humidity
%
barometer
mb
20260506134541 47 333 1.0 5.0 0.02 0.45 0.41 78 1008.3
20260506133040 47 323 4.0 11.0 0.02 0.45 0.41 78 1008.1
20260506131537 47 36 3.0 14.0 0.02 0.45 0.41 78 1008.0
20260506130036 47 360 3.0 10.0 0.02 0.44 0.40 78 1007.8
20260506124532 47 359 5.0 16.0 0.01 0.43 0.39 78 1007.9
20260506123030 48 8 3.0 10.0 0.02 0.43 0.39 77 1007.0
20260506121528 48 19 3.0 8.0 0.01 0.42 0.38 77 1006.1
20260506120031 48 298 4.0 9.0 0.02 0.42 0.38 77 1006.7
20260506114524 49 262 3.0 12.0 0.03 0.42 0.38 77 1006.8
20260506113021 49 327 5.0 11.0 0.03 0.41 0.37 76 1006.5
20260506111521 50 10 6.0 12.0 0.05 0.41 0.37 76 1005.9
20260506110015 51 314 4.0 13.0 0.06 0.40 0.36 75 1005.6
20260506104510 55 351 3.0 15.0 0.06 0.39 0.35 77 1005.2
20260506103011 56 219 0.0 4.0 0.07 0.38 0.34 78 1004.9
20260506101508 56 171 1.0 5.0 0.08 0.36 0.32 78 1004.9
20260506100007 56 195 2.0 6.0 0.08 0.34 0.30 78 1005.1
20260506094506 56 248 0.0 5.0 0.10 0.33 0.28 77 1004.9
20260506093011 56 298 1.0 7.0 0.11 0.31 0.27 77 1004.9
20260506091504 56 260 0.0 5.0 0.13 0.28 0.24 77 1004.9
20260506090003 56 275 0.0 5.0 0.13 0.26 0.22 77 1005.0
20260506084604 56 187 1.0 3.0 0.14 0.24 0.20 76 1005.4
20260506083100 56 194 1.0 3.0 0.12 0.20 0.16 75 1005.6
20260506081559 56 303 0.0 4.0 0.08 0.16 0.12 74 1005.7
20260506080111 56 170 0.0 3.0 0.05 0.13 0.09 73 1005.4
20260506073110 56 243 0.0 4.0 0.00 0.08 0.04 70 1005.4
20260506071554 56 188 1.0 2.0 0.00 0.08 0.04 69 1005.2
20260506061558 57 193 0.0 4.0 0.03 0.14 0.04 67 1006.2
20260506044534 59 205 1.0 4.0 0.02 0.08 0.08 64 1007.4
20260506043033 59 186 0.0 2.0 0.02 0.08 0.08 64 1007.5
20260506041530 60 312 0.0 2.0 0.00 0.06 0.06 62 1007.7
20260506040030 60 273 0.0 3.0 0.00 0.06 0.06 60 1007.9
20260506034528 61 285 0.0 4.0 0.00 0.06 0.06 58 1007.5
20260506033027 62 322 0.0 3.0 0.00 0.06 0.06 56 1007.4
20260506031527 62 303 1.0 7.0 0.00 0.06 0.06 55 1007.2
20260506030027 63 307 3.0 8.0 0.00 0.06 0.06 53 1007.2
20260506024525 64 331 0.0 1.0 0.00 0.06 0.06 53 1007.0
20260506023026 64 333 1.0 4.0 0.00 0.06 0.06 53 1007.3
20260506021525 66 322 1.0 6.0 0.00 0.06 0.06 51 1007.2
20260506020046 67 212 1.0 5.0 0.00 0.06 0.06 44 1007.1
20260506014524 67 243 1.0 8.0 0.00 0.06 0.06 44 1007.0
20260506013023 68 224 1.0 5.0 0.00 0.06 0.06 43 1006.9
20260506011526 68 272 2.0 9.0 0.00 0.06 0.06 43 1006.9
20260506010028 68 214 2.0 8.0 0.00 0.06 0.06 42 1006.7
20260506004525 68 31 2.0 11.0 0.00 0.06 0.06 42 1006.7
20260506003022 69 195 3.0 10.0 0.00 0.06 0.06 41 1006.9
20260506001520 69 279 3.0 15.0 0.00 0.06 0.06 41 1006.8
20260506000031 69 258 4.0 14.0 0.00 0.06 0.06 41 1006.9
20260505234521 70 229 3.0 10.0 0.00 0.06 0.06 41 1007.0
20260505233018 70 195 2.0 10.0 0.00 0.06 0.06 42 1006.8
20260505231520 70 304 3.0 10.0 0.00 0.06 0.06 41 1006.8
20260505230030 70 145 3.0 10.0 0.00 0.06 0.06 42 1006.7
20260505224517 70 260 4.0 14.0 0.00 0.06 0.06 42 1006.8
20260505223016 70 235 2.0 9.0 0.00 0.06 0.06 43 1006.9
20260505221516 70 277 4.0 12.0 0.00 0.06 0.06 43 1007.2
20260505220016 71 229 4.0 12.0 0.00 0.06 0.06 43 1007.1
20260505214515 71 212 4.0 16.0 0.00 0.06 0.06 43 1007.2
20260505213016 71 265 3.0 12.0 0.00 0.06 0.06 43 1007.2
20260505211521 71 153 4.0 17.0 0.00 0.06 0.06 43 1007.3
20260505210014 71 262 4.0 15.0 0.00 0.06 0.06 41 1007.2
20260505204514 71 219 4.0 10.0 0.00 0.06 0.06 44 1007.4
20260505203016 71 274 5.0 17.0 0.00 0.06 0.06 41 1007.4
20260505201511 71 257 6.0 17.0 0.00 0.06 0.06 43 1007.3
20260505200011 71 270 5.0 19.0 0.00 0.06 0.06 43 1007.5
20260505194510 72 233 4.0 21.0 0.00 0.06 0.06 42 1007.5
20260505193010 72 219 3.0 10.0 0.00 0.06 0.06 42 1007.5
20260505191512 72 237 1.0 8.0 0.00 0.06 0.06 42 1007.7
20260505190006 73 285 3.0 15.0 0.00 0.06 0.06 40 1007.6
20260505184504 73 2 2.0 16.0 0.00 0.06 0.06 40 1007.7
20260505183003 73 276 4.0 20.0 0.00 0.06 0.06 40 1007.9
20260505181501 73 277 6.0 15.0 0.00 0.06 0.06 40 1007.9
20260505180107 72 307 5.0 18.0 0.00 0.06 0.06 40 1007.9
20260505174558 73 241 4.0 14.0 0.00 0.06 0.06 41 1007.9
20260505173055 72 262 4.0 13.0 0.00 0.06 0.06 44 1007.9
20260505171601 69 310 2.0 10.0 0.00 0.06 0.06 46 1008.0
20260505170052 68 233 3.0 17.0 0.00 0.06 0.06 45 1007.8
20260505164553 69 211 4.0 14.0 0.00 0.06 0.06 43 1007.8
20260505163051 70 284 4.0 17.0 0.00 0.06 0.06 44 1007.8
20260505161552 71 191 4.0 17.0 0.00 0.06 0.06 42 1007.6
20260505153047 70 229 7.0 20.0 0.00 0.06 0.06 43 1008.1
20260505151546 71 229 8.0 16.0 0.00 0.06 0.06 44 1007.8